DW2963 Weather Reports


time (UTC)temp
C
wind
direction
speed
KPH
gust
KPH
rain 1hr
cm
rain 24hr
cm
rain mn
cm
humidity
%
barometer
mb
20260509123034 8 240 20.9 40.2 0.00 0.00 0.00 94 1001.6
20260509121549 8 260 19.3 33.8 0.00 0.00 0.00 95 1001.7
20260509120030 8 207 22.5 37.0 0.00 0.00 0.00 95 1001.7
20260509114547 8 238 22.5 37.0 0.00 0.00 0.00 95 1001.5
20260509113028 8 210 20.9 38.6 0.00 0.00 0.00 94 1001.5
20260509111525 8 213 20.9 33.8 0.00 0.00 0.00 95 1001.4
20260509110125 8 225 24.1 33.8 0.00 0.00 0.00 94 1001.3
20260509104505 8 232 22.5 35.4 0.00 0.00 0.00 95 1001.3
20260509103002 8 198 24.1 35.4 0.00 0.00 0.00 94 1001.3
20260509101600 9 215 29.0 35.4 0.00 0.00 0.00 94 1001.4
20260509100058 9 235 22.5 38.6 0.00 0.00 0.00 94 1001.5
20260509094601 9 205 25.7 40.2 0.00 0.00 0.00 94 1001.7
20260509093055 9 234 27.4 38.6 0.00 0.00 0.00 94 1001.7
20260509091559 10 199 29.0 41.8 0.00 0.00 0.00 93 1001.9
20260509090104 9 211 27.4 35.4 0.00 0.00 0.00 94 1001.9
20260509084544 10 212 30.6 37.0 0.00 0.00 0.00 93 1002.0
20260509083046 9 225 27.4 33.8 0.00 0.00 0.00 93 1002.3
20260509081633 9 216 25.7 35.4 0.00 0.00 0.00 93 1002.6
20260509080034 9 207 24.1 38.6 0.00 0.00 0.00 92 1002.9
20260509074535 9 198 22.5 37.0 0.00 0.00 0.00 92 1003.3
20260509073027 9 240 20.9 32.2 0.00 0.00 0.00 92 1003.3
20260509071525 9 201 20.9 35.4 0.00 0.00 0.00 91 1003.5
20260509070026 10 194 24.1 35.4 0.00 0.00 0.00 90 1003.8
20260509064506 10 210 27.4 35.4 0.00 0.00 0.00 89 1004.1
20260509063003 10 211 25.7 41.8 0.00 0.00 0.00 87 1004.1
20260509061602 11 200 25.7 37.0 0.00 0.00 0.00 85 1004.3
20260509060058 11 194 22.5 32.2 0.00 0.00 0.00 83 1004.4
20260509054556 11 184 20.9 29.0 0.00 0.00 0.00 82 1004.6
20260509053052 11 200 19.3 32.2 0.00 0.00 0.00 80 1004.8
20260509051552 11 183 19.3 27.4 0.00 0.00 0.00 79 1004.8
20260509050058 11 196 19.3 30.6 0.00 0.00 0.00 79 1004.7
20260509043040 12 190 19.3 33.8 0.00 0.00 0.00 70 1005.0
20260509041530 13 198 20.9 33.8 0.00 0.00 0.00 67 1005.1
20260509040027 12 197 17.7 33.8 0.00 0.00 0.00 65 1005.4
20260509034526 12 194 20.9 35.4 0.00 0.00 0.00 63 1005.5
20260509033034 12 202 19.3 30.6 0.00 0.00 0.00 60 1005.8
20260509031527 12 196 22.5 30.6 0.00 0.00 0.00 62 1005.9
20260509030022 12 179 20.9 32.2 0.00 0.00 0.00 62 1006.3
20260509024509 12 173 19.3 29.0 0.00 0.00 0.00 59 1006.4
20260509023008 12 177 19.3 30.6 0.00 0.00 0.00 61 1006.4
20260509021507 12 187 19.3 29.0 0.00 0.00 0.00 59 1006.5
20260509020006 12 175 17.7 27.4 0.00 0.00 0.00 54 1006.5
20260509014505 12 186 17.7 27.4 0.00 0.00 0.00 53 1006.5
20260509013004 12 184 16.1 22.5 0.00 0.00 0.00 63 1006.6
20260509011506 13 182 12.9 19.3 0.00 0.00 0.00 30 1006.3
20260509010002 13 186 12.9 22.5 0.00 0.00 0.00 36 1006.2
20260509004556 13 180 12.9 22.5 0.00 0.00 0.00 38 1006.2
20260509003046 13 196 9.7 24.1 0.00 0.00 0.00 33 1006.4
20260509001541 13 182 16.1 30.6 0.00 0.00 0.00 43 1006.6
20260509000044 12 200 19.3 30.6 0.00 0.00 0.00 55 1006.9
20260508234534 12 191 20.9 30.6 0.00 0.00 0.00 55 1007.0
20260508233033 12 196 20.9 29.0 0.00 0.00 0.00 50 1007.1
20260508231528 12 165 19.3 25.7 0.00 0.00 0.00 60 1007.3
20260508230026 12 185 19.3 25.7 0.00 0.00 0.00 62 1007.5
20260508224520 11 202 17.7 25.7 0.00 0.00 0.00 66 1007.6
20260508223004 11 197 16.1 25.7 0.00 0.00 0.00 69 1007.9
20260508221557 11 192 14.5 22.5 0.00 0.00 0.00 71 1008.0
20260508220047 11 207 16.1 22.5 0.00 0.00 0.00 72 1008.1
20260508214549 11 201 17.7 22.5 0.00 0.00 0.00 70 1008.2
20260508213043 11 186 16.1 22.5 0.00 0.00 0.00 72 1008.2
20260508211547 11 177 16.1 22.5 0.00 0.00 0.00 75 1008.4
20260508210040 10 198 16.1 22.5 0.00 0.00 0.00 79 1008.6
20260508204537 10 194 16.1 20.9 0.00 0.00 0.00 79 1008.9
20260508203036 10 208 19.3 22.5 0.00 0.00 0.00 80 1009.1
20260508201519 10 202 16.1 20.9 0.00 0.00 0.00 80 1009.3
20260508200029 10 205 17.7 22.5 0.00 0.00 0.00 82 1009.5
20260508194516 10 204 19.3 24.1 0.00 0.00 0.00 85 1009.6
20260508193014 10 204 17.7 24.1 0.00 0.00 0.00 86 1009.9
20260508191513 10 201 17.7 22.5 0.00 0.00 0.00 85 1010.0
20260508190018 10 207 17.7 22.5 0.00 0.00 0.00 84 1010.1
20260508184522 10 206 16.1 20.9 0.00 0.00 0.00 83 1010.3
20260508183010 10 211 14.5 17.7 0.00 0.00 0.00 83 1010.3
20260508181509 10 205 14.5 19.3 0.00 0.00 0.00 84 1010.5
20260508180055 10 196 12.9 19.3 0.00 0.00 0.00 83 1010.7
20260508174553 10 211 14.5 17.7 0.00 0.00 0.00 85 1010.9
20260508173053 10 205 12.9 17.7 0.00 0.00 0.00 84 1011.2
20260508171553 10 207 12.9 17.7 0.00 0.00 0.00 84 1011.3
20260508170049 10 207 16.1 19.3 0.00 0.00 0.00 84 1011.6
20260508164548 10 211 17.7 20.9 0.00 0.00 0.00 84 1011.9
20260508163049 10 204 14.5 22.5 0.00 0.00 0.00 84 1011.8
20260508161546 10 204 16.1 19.3 0.00 0.00 0.00 84 1012.1
20260508160045 10 215 16.1 20.9 0.00 0.00 0.00 84 1012.0
20260508154543 9 207 16.1 20.9 0.00 0.00 0.00 83 1012.0
20260508153029 9 209 17.7 22.5 0.00 0.00 0.00 84 1012.0
20260508151528 8 205 19.3 24.1 0.00 0.00 0.00 83 1012.1
20260508150033 8 215 19.3 27.4 0.00 0.00 0.00 85 1012.1
20260508144625 8 205 17.7 22.5 0.00 0.00 0.00 82 1012.1
20260508143034 9 204 14.5 20.9 0.00 0.00 0.00 81 1012.0
20260508141524 8 217 17.7 20.9 0.00 0.00 0.00 80 1012.3
20260508140015 9 207 11.3 16.1 0.00 0.00 0.00 80 1012.1
20260508134514 8 215 14.5 17.7 0.00 0.00 0.00 79 1012.1
20260508133002 8 213 14.5 17.7 0.00 0.00 0.00 80 1012.1
20260508131502 8 182 14.5 16.1 0.00 0.00 0.00 81 1012.2
20260508130058 8 193 14.5 17.7 0.00 0.00 0.00 82 1012.2
20260508124601 8 211 12.9 17.7 0.00 0.00 0.00 82 1012.3